Winner, SD

12:56 AM CST on December 14, 2017 (GMT -0600)
Winner

Weather History for KICR - November, 2013

Change the Weather History Date:

Tuesday, November 5, 2013

  Actual Average Record
Temperature  
Mean Temperature 31 °F 42 °F  
Max Temperature 36 °F 52 °F 78 °F (2016)
Min Temperature 25 °F 31 °F 22 °F (2017)
Degree Days  
Heating Degree Days 34 23  
Month to date heating degree days 115 111  
Since 1 July heating degree days 712 709  
Cooling Degree Days 0 0  
Month to date cooling degree days 0 0  
Year to date cooling degree days 1014 916  
Moisture  
Dew Point 28 °F    
Average Humidity 82    
Maximum Humidity 100    
Minimum Humidity 64    
Precipitation  
Precipitation 0.05 in 0.02 in 0.28 in (2015)
Month to date precipitation 0.07 0.15  
Year to date precipitation 20.80 20.78  
Sea Level Pressure  
Sea Level Pressure 30.17 in    
Wind  
Wind Speed 10 mph (NNE)    
Max Wind Speed 16 mph    
Max Gust Speed 20 mph    
Visibility 3 miles    
Events Snow    
T = Trace of Precipitation, MM = Missing Value Source: NWS Daily Summary

Daily Weather History Graph

Daily Weather History Graph

Search for Another Location

Airport or City:

Trip Planner

Search our weather history database for the weather conditions in past years. The results will help you decide how hot, cold, wet, or windy it might be!

Date:

Astronomy

Nov. 05, 2013 Rise Set
Actual Time 7:20 AM CST 5:25 PM CST
Civil Twilight 6:50 AM CST 5:55 PM CST
Nautical Twilight 6:16 AM CST 6:29 PM CST
Astronomical Twilight 5:42 AM CST 7:02 PM CST
Moon 9:39 AM CST (11/5) 7:25 PM CST (11/5)
Length of Visible Light 11h 05m
Length of Day
10h 05m
Waxing Crescent, 7% of the Moon is Illuminated
Nov 5
Waxing Crescent
Nov 9
First Quarter
Nov 17
Full
Nov 25
Last Quarter
Dec 2
New

Hourly Weather History & Observations

Time (CST) Temp. Windchill Dew Point Humidity Pressure Visibility Wind Dir Wind Speed Gust Speed Precip Events Conditions
12:53 AM 34.0 °F 31.0 °F 26.1 °F 73% 30.17 in 10.0 mi SE 3.5 mph - N/A   Overcast
1:53 AM 33.1 °F 28.7 °F 26.1 °F 75% 30.16 in 10.0 mi NNE 4.6 mph - N/A   Overcast
2:53 AM 34.0 °F 31.0 °F 27.0 °F 75% 30.18 in 10.0 mi NNE 3.5 mph - N/A   Overcast
3:53 AM 35.1 °F 28.6 °F 26.1 °F 70% 30.16 in 10.0 mi NE 8.1 mph - N/A   Overcast
4:53 AM 35.1 °F 28.6 °F 26.1 °F 70% 30.15 in 10.0 mi ENE 8.1 mph - N/A   Overcast
5:53 AM 36.0 °F 28.5 °F 24.1 °F 62% 30.15 in 10.0 mi East 10.4 mph - N/A   Overcast
6:53 AM 35.1 °F 29.3 °F 25.0 °F 67% 30.16 in 10.0 mi ENE 6.9 mph - N/A   Overcast
7:53 AM 35.1 °F 26.9 °F 25.0 °F 67% 30.20 in 9.0 mi East 11.5 mph 16.1 mph 0.00 in Snow Light Snow
8:53 AM 32.0 °F 23.0 °F 28.0 °F 85% 30.24 in 4.0 mi NNE 11.5 mph - 0.00 in Snow Light Snow
9:02 AM 32.0 °F 22.5 °F 28.4 °F 87% 30.18 in 4.0 mi NE 12.7 mph - 0.00 in Snow Light Snow
9:13 AM 32.0 °F 22.5 °F 28.4 °F 87% 30.18 in 2.0 mi NE 12.7 mph - 0.00 in Snow Light Snow
9:20 AM 32.0 °F 23.0 °F 28.4 °F 87% 30.18 in 1.2 mi NE 11.5 mph - 0.00 in Snow Light Snow
9:41 AM 32.0 °F 22.1 °F 28.4 °F 87% 30.17 in 1.5 mi NE 13.8 mph - 0.00 in Snow Light Snow
9:48 AM 32.0 °F 23.0 °F 28.4 °F 87% 30.17 in 2.5 mi NE 11.5 mph - 0.00 in Snow Light Snow
9:51 AM 32.0 °F 22.5 °F 30.2 °F 93% 30.17 in 3.0 mi NE 12.7 mph - 0.00 in Snow Light Snow
9:53 AM 32.0 °F 22.1 °F 30.0 °F 92% 30.23 in 3.0 mi NE 13.8 mph - 0.00 in Snow Light Snow
10:22 AM 32.0 °F 21.6 °F 30.2 °F 93% 30.17 in 2.0 mi ENE 15.0 mph - 0.00 in Snow Light Snow
10:29 AM 32.0 °F 23.0 °F 30.2 °F 93% 30.17 in 1.2 mi ENE 11.5 mph - 0.00 in Snow Light Snow
10:38 AM 32.0 °F 22.5 °F 30.2 °F 93% 30.17 in 1.5 mi ENE 12.7 mph - 0.00 in Snow Light Snow
10:53 AM 32.0 °F 21.2 °F 30.0 °F 92% 30.22 in 1.2 mi NE 16.1 mph - 0.00 in Snow Light Snow
11:42 AM 32.0 °F 23.0 °F 30.2 °F 93% 30.16 in 2.0 mi NE 11.5 mph - 0.00 in Snow Light Snow
11:50 AM 32.0 °F 22.5 °F 30.2 °F 93% 30.15 in 1.2 mi NE 12.7 mph - 0.00 in Snow Light Snow
11:53 AM 32.0 °F 21.6 °F 30.0 °F 92% 30.21 in 1.0 mi NE 15.0 mph - 0.00 in Snow Light Snow
12:08 PM 32.0 °F 22.5 °F 30.2 °F 93% 30.14 in 0.8 mi NNE 12.7 mph - 0.00 in Snow Light Snow
12:18 PM 32.0 °F 22.5 °F 30.2 °F 93% 30.14 in 1.0 mi NE 12.7 mph - 0.00 in Snow Light Snow
12:38 PM 32.0 °F 21.2 °F 28.4 °F 87% 30.14 in 0.8 mi NE 16.1 mph - 0.00 in Snow Light Snow
12:53 PM 32.0 °F 21.6 °F 28.9 °F 88% 30.20 in 0.8 mi NE 15.0 mph - 0.00 in Snow Light Snow
1:08 PM 32.0 °F 23.0 °F 30.2 °F 93% 30.13 in 0.8 mi NNE 11.5 mph - 0.00 in Snow Light Snow
1:15 PM 32.0 °F 22.5 °F 30.2 °F 93% 30.13 in 0.8 mi NNE 12.7 mph - 0.00 in Snow Light Snow
1:53 PM 30.9 °F 20.2 °F 28.9 °F 92% 30.18 in 0.8 mi NNE 15.0 mph - 0.01 in Snow Light Snow
2:04 PM 30.2 °F 19.8 °F 28.4 °F 93% 30.11 in 1.0 mi NNE 13.8 mph - 0.00 in Snow Light Snow
2:13 PM 30.2 °F 19.8 °F 30.2 °F 100% 30.11 in 1.5 mi NNE 13.8 mph - 0.00 in Snow Light Snow
2:38 PM 32.0 °F 21.6 °F 28.4 °F 87% 30.11 in 1.8 mi NNE 15.0 mph - 0.00 in Snow Light Snow
2:53 PM 32.0 °F 22.5 °F 28.9 °F 88% 30.17 in 1.5 mi NNE 12.7 mph - 0.00 in Snow Light Snow
3:39 PM 30.2 °F 20.2 °F 28.4 °F 93% 30.12 in 1.2 mi NNE 12.7 mph - 0.00 in Snow Light Snow
3:48 PM 30.2 °F 21.9 °F 30.2 °F 100% 30.13 in 1.2 mi NNE 9.2 mph - 0.00 in Snow Light Snow
3:53 PM 30.9 °F 22.2 °F 30.0 °F 96% 30.19 in 1.2 mi North 10.4 mph - 0.00 in Snow Light Snow
4:23 PM 30.2 °F 21.3 °F 28.4 °F 93% 30.13 in 0.8 mi North 10.4 mph - 0.00 in Snow Light Snow
4:28 PM 30.2 °F 21.9 °F 28.4 °F 93% 30.13 in 0.8 mi North 9.2 mph - 0.00 in Snow Light Snow
4:36 PM 30.2 °F 21.9 °F 28.4 °F 93% 30.13 in 1.0 mi North 9.2 mph - 0.01 in Snow Light Snow
4:53 PM 30.9 °F 22.8 °F 28.9 °F 92% 30.19 in 0.8 mi North 9.2 mph - 0.01 in Snow Light Snow
5:33 PM 30.2 °F 23.4 °F 28.4 °F 93% 30.13 in 1.2 mi North 6.9 mph - 0.00 in Snow Light Snow
5:53 PM 30.9 °F 25.2 °F 30.0 °F 96% 30.19 in 1.8 mi NNW 5.8 mph - 0.01 in Snow Light Snow
5:57 PM 30.2 °F 23.4 °F 30.2 °F 100% 30.14 in 2.5 mi NNW 6.9 mph - 0.00 in Snow Light Snow
6:02 PM 30.2 °F 23.4 °F 28.4 °F 93% 30.14 in 3.0 mi NNW 6.9 mph - 0.00 in Snow Light Snow
6:26 PM 30.2 °F 21.9 °F 28.4 °F 93% 30.15 in 2.5 mi NNW 9.2 mph - 0.00 in Snow Light Snow
6:35 PM 30.2 °F 21.3 °F 28.4 °F 93% 30.15 in 1.8 mi NNW 10.4 mph - 0.00 in Snow Light Snow
6:53 PM 30.0 °F 20.5 °F 28.9 °F 96% 30.22 in 2.0 mi NNW 11.5 mph - 0.01 in Snow Light Snow
7:01 PM 30.2 °F 21.9 °F 28.4 °F 93% 30.16 in 1.8 mi NNW 9.2 mph - 0.00 in Snow Light Snow
7:09 PM 30.2 °F 22.6 °F 28.4 °F 93% 30.16 in 2.0 mi NNW 8.1 mph - 0.00 in Snow Light Snow
7:20 PM 30.2 °F 22.6 °F 28.4 °F 93% 30.17 in 1.8 mi NNW 8.1 mph - 0.00 in Snow Light Snow
7:29 PM 30.2 °F 22.6 °F 28.4 °F 93% 30.17 in 1.8 mi NNW 8.1 mph - 0.00 in Snow Light Snow
7:51 PM 30.2 °F 22.6 °F 28.4 °F 93% 30.17 in 2.5 mi NNW 8.1 mph - 0.01 in Snow Light Snow
7:53 PM 30.0 °F 22.4 °F 28.9 °F 96% 30.23 in 2.5 mi NNW 8.1 mph - 0.01 in Snow Light Snow
8:01 PM 30.2 °F 21.9 °F 28.4 °F 93% 30.17 in 4.0 mi NNW 9.2 mph - 0.00 in Snow Light Snow
8:21 PM 30.2 °F 22.6 °F 28.4 °F 93% 30.17 in 2.5 mi NNW 8.1 mph - 0.00 in Snow Light Snow
8:28 PM 30.2 °F 22.6 °F 28.4 °F 93% 30.17 in 2.5 mi NW 8.1 mph - 0.00 in Snow Light Snow
8:34 PM 30.2 °F 22.6 °F 28.4 °F 93% 30.17 in 1.8 mi NW 8.1 mph - 0.00 in Snow Light Snow
8:53 PM 30.0 °F 22.4 °F 28.9 °F 96% 30.24 in 2.5 mi NW 8.1 mph - 0.00 in Snow Light Snow
9:00 PM 30.2 °F 23.4 °F 28.4 °F 93% 30.17 in 3.0 mi NW 6.9 mph - 0.00 in Snow Light Snow
9:53 PM 28.0 °F 22.8 °F 27.0 °F 96% 30.24 in 10.0 mi NW 4.6 mph - 0.00 in   Overcast
10:53 PM 28.0 °F 20.8 °F 27.0 °F 96% 30.24 in 7.0 mi WNW 6.9 mph - 0.00 in   Overcast
11:53 PM 25.0 °F 18.1 °F 24.1 °F 96% 30.23 in 7.0 mi West 5.8 mph - 0.00 in Snow Light Snow